Andrews, TX

5:34 AM CST on December 16, 2019 (GMT -0600)
Andrews

Weather History for KE11 - October, 2019

Change the Weather History Date:

Saturday, October 5, 2019

  Actual Average (WUND) Record (WUND)
Temperature  
Mean Temperature 76 °F -  
Max Temperature 88 °F - - (-1)
Min Temperature 64 °F - - (-1)
Cooling Degree Days 11    
Growing Degree Days 26 (Base 50)    
Moisture  
Dew Point 56 °F    
Average Humidity 53    
Maximum Humidity 73    
Minimum Humidity 28    
Precipitation  
Precipitation 0.00 in - - ()
Sea Level Pressure  
Sea Level Pressure 30.07 in    
Wind  
Wind Speed 5 mph ()    
Max Wind Speed 12 mph    
Max Gust Speed 17 mph    
Visibility 10.0 miles    
Events      
Averages and records for this station are not official NWS values.
T = Trace of Precipitation, MM = Missing Value Source: Averaged Metar Reports

Daily Weather History Graph

Daily Weather History Graph

Search for Another Location

Airport or City:

Astronomy

Oct. 05, 2019 Rise Set
Actual Time 7:46 AM CDT 7:29 PM CDT
Civil Twilight 7:22 AM CDT 7:54 PM CDT
Nautical Twilight 6:53 AM CDT 8:22 PM CDT
Astronomical Twilight 6:25 AM CDT 8:51 PM CDT
Moon 2:55 PM CDT (10/5) 12:20 AM CDT (10/5)
Length of Visible Light 12h 32m
Length of Day
11h 43m
Waxing Crescent, 50% of the Moon is Illuminated
Oct 5
Waxing Crescent
Oct 13
Full
Oct 21
Last Quarter
Oct 27
New
Nov 4
First Quarter

Hourly Weather History & Observations

Time (CDT) Temp. Heat Index Dew Point Humidity Pressure Visibility Wind Dir Wind Speed Gust Speed Precip Events Conditions
12:15 AM 69.3 °F - 56.8 °F 65% 30.11 in 10.0 mi SSE 4.6 mph - N/A   Overcast
12:35 AM 69.4 °F - 57.2 °F 65% 30.11 in 10.0 mi SSE 5.8 mph - N/A   Overcast
12:55 AM 68.5 °F - 56.8 °F 66% 30.11 in 10.0 mi South 5.8 mph - N/A   Overcast
1:15 AM 68.0 °F - 56.7 °F 67% 30.10 in 10.0 mi South 4.6 mph - N/A   Scattered Clouds
1:35 AM 67.6 °F - 57.2 °F 69% 30.10 in 10.0 mi South 4.6 mph - N/A   Clear
1:55 AM 67.5 °F - 56.8 °F 69% 30.10 in 10.0 mi South 5.8 mph - N/A   Clear
2:15 AM 67.5 °F - 56.7 °F 68% 30.11 in 10.0 mi South 4.6 mph - N/A   Clear
2:35 AM 67.1 °F - 56.8 °F 70% 30.10 in 10.0 mi South 4.6 mph - N/A   Scattered Clouds
2:55 AM 68.0 °F - 56.1 °F 66% 30.10 in 10.0 mi South 5.8 mph - N/A   Mostly Cloudy
3:15 AM 67.1 °F - 55.4 °F 66% 30.09 in 10.0 mi South 6.9 mph - N/A   Scattered Clouds
3:35 AM 66.6 °F - 55.4 °F 67% 30.09 in 10.0 mi SSW 5.8 mph - N/A   Clear
3:55 AM 66.6 °F - 54.9 °F 66% 30.08 in 10.0 mi South 5.8 mph - N/A   Scattered Clouds
4:15 AM 67.3 °F - 54.5 °F 63% 30.08 in 10.0 mi SSW 5.8 mph - N/A   Scattered Clouds
4:35 AM 67.3 °F - 54.5 °F 63% 30.08 in 10.0 mi SSW 6.9 mph - N/A   Clear
4:55 AM 66.6 °F - 54.5 °F 65% 30.07 in 10.0 mi SSW 9.2 mph - N/A   Clear
5:10 AM 66.6 °F - 54.5 °F 65% 30.07 in 10.0 mi SSW 8.1 mph - N/A   Clear
5:35 AM 65.8 °F - 54.7 °F 67% 30.07 in 10.0 mi SSW 8.1 mph - N/A   Clear
5:55 AM 66.2 °F - 54.7 °F 66% 30.07 in 10.0 mi SSW 8.1 mph - N/A   Clear
6:15 AM 67.3 °F - 54.7 °F 64% 30.08 in 10.0 mi SSW 6.9 mph - N/A   Clear
6:35 AM 66.4 °F - 54.7 °F 66% 30.07 in 10.0 mi SSW 6.9 mph - N/A   Clear
6:55 AM 65.3 °F - 54.5 °F 68% 30.08 in 10.0 mi SSW 5.8 mph - N/A   Clear
7:15 AM 64.6 °F - 55.2 °F 72% 30.09 in 10.0 mi SSW 3.5 mph - N/A   Clear
7:35 AM 64.2 °F - 55.4 °F 73% 30.09 in 10.0 mi SSW 3.5 mph - N/A   Clear
7:55 AM 64.8 °F - 55.4 °F 72% 30.08 in 10.0 mi SSW 4.6 mph - N/A   Clear
8:15 AM 66.0 °F - 55.6 °F 69% 30.08 in 10.0 mi SSW 6.9 mph - N/A   Clear
8:35 AM 67.1 °F - 55.8 °F 67% 30.09 in 10.0 mi South 5.8 mph - N/A   Clear
8:55 AM 66.6 °F - 56.5 °F 70% 30.10 in 10.0 mi SSW 4.6 mph - N/A   Clear
9:15 AM 67.6 °F - 56.7 °F 68% 30.10 in 10.0 mi South 4.6 mph - N/A   Clear
9:35 AM 70.5 °F - 57.2 °F 63% 30.10 in 10.0 mi South 5.8 mph - N/A   Clear
9:55 AM 73.0 °F - 57.7 °F 59% 30.10 in 10.0 mi SSW 6.9 mph - N/A   Clear
10:15 AM 75.2 °F - 58.1 °F 55% 30.10 in 10.0 mi SSW 10.4 mph - N/A   Clear
10:35 AM 76.8 °F - 58.1 °F 52% 30.11 in 10.0 mi SSW 10.4 mph - N/A   Clear
10:55 AM 78.4 °F - 58.5 °F 50% 30.12 in 10.0 mi SW 9.2 mph - N/A   Clear
11:15 AM 79.7 °F - 58.8 °F 49% 30.11 in 10.0 mi SW 8.1 mph - N/A   Clear
11:35 AM 81.0 °F 81.3 °F 58.8 °F 47% 30.11 in 10.0 mi West 5.8 mph - N/A   Clear
11:55 AM 81.9 °F 82.1 °F 59.0 °F 46% 30.11 in 10.0 mi West 4.6 mph - N/A   Clear
12:15 PM 83.3 °F 83.2 °F 59.4 °F 44% 30.10 in 10.0 mi West 8.1 mph - N/A   Clear
12:35 PM 83.7 °F 83.6 °F 59.9 °F 44% 30.10 in 10.0 mi WNW 5.8 mph - N/A   Clear
12:55 PM 84.6 °F 84.6 °F 60.4 °F 44% 30.10 in 10.0 mi NW 9.2 mph - N/A   Clear
1:15 PM 84.7 °F 84.4 °F 59.5 °F 42% 30.09 in 10.0 mi WNW 8.1 mph - N/A   Clear
1:35 PM 85.1 °F 84.6 °F 59.2 °F 41% 30.09 in 10.0 mi North 8.1 mph - N/A   Clear
1:55 PM 86.0 °F 85.2 °F 58.6 °F 39% 30.07 in 10.0 mi NW 6.9 mph - N/A   Clear
2:15 PM 86.0 °F 84.9 °F 57.2 °F 37% 30.07 in 10.0 mi WNW 6.9 mph - N/A   Clear
2:35 PM 86.9 °F 85.3 °F 55.8 °F 34% 30.06 in 10.0 mi NW 6.9 mph - N/A   Clear
2:55 PM 86.7 °F 85.1 °F 55.0 °F 34% 30.04 in 10.0 mi NW 9.2 mph - N/A   Clear
3:15 PM 87.6 °F 86.1 °F 55.9 °F 34% 30.03 in 10.0 mi NNW 8.1 mph - N/A   Clear
3:35 PM 87.4 °F 85.7 °F 55.2 °F 33% 30.03 in 10.0 mi Calm Calm - N/A   Clear
3:55 PM 87.8 °F 86.1 °F 55.2 °F 33% 30.02 in 10.0 mi WNW 8.1 mph - N/A   Clear
4:15 PM 88.7 °F 86.9 °F 55.4 °F 32% 30.01 in 10.0 mi WNW 11.5 mph - N/A   Clear
4:35 PM 88.0 °F 86.1 °F 55.0 °F 32% 30.01 in 10.0 mi Calm Calm - N/A   Clear
4:55 PM 88.5 °F 86.5 °F 54.1 °F 31% 30.01 in 10.0 mi NW 9.2 mph 17.3 mph N/A   Clear
5:15 PM 88.9 °F - 52.2 °F 28% 30.01 in 10.0 mi NW 8.1 mph - N/A   Clear
5:35 PM 88.2 °F - 52.3 °F 29% 30.00 in 10.0 mi NNW 8.1 mph - N/A   Clear
5:55 PM 87.8 °F - 51.3 °F 28% 30.00 in 10.0 mi NNW 6.9 mph - N/A   Clear
6:15 PM 87.1 °F - 50.7 °F 29% 30.00 in 10.0 mi NNW 5.8 mph - N/A   Clear
6:35 PM 86.2 °F - 50.9 °F 30% 30.00 in 10.0 mi WNW 6.9 mph - N/A   Clear
6:55 PM 84.7 °F - 52.7 °F 33% 30.00 in 10.0 mi NNW 3.5 mph - N/A   Clear
7:15 PM 80.4 °F 80.4 °F 55.4 °F 42% 30.00 in 10.0 mi NNW 4.6 mph - N/A   Clear
7:55 PM 77.9 °F - 55.4 °F 46% 30.02 in 10.0 mi NW 3.5 mph - N/A   Clear
8:15 PM 76.8 °F - 55.6 °F 48% 30.03 in 10.0 mi NW 3.5 mph - N/A   Clear
8:35 PM 74.8 °F - 55.9 °F 52% 30.03 in 10.0 mi NW 3.5 mph - N/A   Clear
8:55 PM 73.6 °F - 55.8 °F 54% 30.03 in 10.0 mi NW 3.5 mph - N/A   Clear
9:15 PM 70.9 °F - 55.4 °F 58% 30.03 in 10.0 mi North 5.8 mph - N/A   Clear
9:35 PM 71.8 °F - 54.9 °F 55% 30.03 in 10.0 mi NNW 3.5 mph - N/A   Clear
9:55 PM 71.1 °F - 54.3 °F 55% 30.03 in 10.0 mi NNE 4.6 mph - N/A   Clear
10:15 PM 69.6 °F - 54.0 °F 57% 30.04 in 10.0 mi Calm Calm - N/A   Clear
10:35 PM 70.3 °F - 52.9 °F 54% 30.04 in 10.0 mi NE 5.8 mph - N/A   Clear
10:55 PM 68.0 °F - 53.8 °F 60% 30.04 in 10.0 mi Calm Calm - N/A   Clear
11:15 PM 68.7 °F - 53.1 °F 57% 30.04 in 10.0 mi Calm Calm - N/A   Clear
11:35 PM 69.4 °F - 53.2 °F 56% 30.04 in 10.0 mi Calm Calm - N/A   Clear
11:55 PM 69.8 °F - 53.8 °F 57% 30.04 in 10.0 mi Calm Calm - N/A   Clear